Time,TemperatureF,DewpointF,PressureIn,WindDirection,WindDirectionDegrees,WindSpeedMPH,WindSpeedGustMPH,Humidity,HourlyPrecipIn,Conditions,Clouds,dailyrainin,SoftwareType,DateUTC
2013-02-26 00:03:00,46.9,22.6,30.04,WSW,245,18.4,18.4,38,0.00,CLR,,0.00,WeatherDisplay:10.37,2013-02-26 08:03:00,
2013-02-26 00:08:00,45.9,22.9,30.04,West,261,19.6,19.6,40,0.00,CLR,,0.00,WeatherDisplay:10.37,2013-02-26 08:08:00,
2013-02-26 00:13:00,46.2,23.2,30.04,WSW,254,19.6,19.6,40,0.00,CLR,,0.00,WeatherDisplay:10.37,2013-02-26 08:13:00,
2013-02-26 00:18:00,46.1,22.5,30.04,West,273,11.5,11.5,39,0.00,CLR,,0.00,WeatherDisplay:10.37,2013-02-26 08:18:00,
2013-02-26 00:23:00,46.3,22.7,30.05,West,262,8.0,8.0,39,0.00,CLR,,0.00,WeatherDisplay:10.37,2013-02-26 08:23:00,
2013-02-26 00:28:00,47.4,23.7,30.05,SW,227,11.5,11.5,39,0.00,CLR,,0.00,WeatherDisplay:10.37,2013-02-26 08:28:00,
2013-02-26 00:33:00,48.5,23.4,30.05,SW,234,16.1,16.1,37,0.00,CLR,,0.00,WeatherDisplay:10.37,2013-02-26 08:33:00,
2013-02-26 00:38:00,49.2,24.0,30.04,SW,218,26.5,26.5,37,0.00,CLR,,0.00,WeatherDisplay:10.37,2013-02-26 08:38:00,
2013-02-26 00:43:00,48.7,23.6,30.03,SW,215,25.0,25.0,37,0.00,CLR,,0.00,WeatherDisplay:10.37,2013-02-26 08:43:00,
2013-02-26 00:48:00,48.5,24.0,30.03,SW,232,21.9,21.9,38,0.00,CLR,,0.00,WeatherDisplay:10.37,2013-02-26 08:48:00,
2013-02-26 00:53:00,47.9,22.8,30.02,SW,233,21.9,21.9,37,0.00,CLR,,0.00,WeatherDisplay:10.37,2013-02-26 08:53:00,
2013-02-26 00:58:00,47.0,21.4,30.03,WSW,242,21.9,21.9,36,0.00,CLR,,0.00,WeatherDisplay:10.37,2013-02-26 08:58:00,
2013-02-26 01:03:00,47.7,22.0,30.02,WSW,241,27.0,27.0,36,0.00,OVC,,0.00,WeatherDisplay:10.37,2013-02-26 09:03:00,
2013-02-26 01:08:00,48.0,22.3,30.03,SW,220,17.3,17.3,36,0.00,OVC,,0.00,WeatherDisplay:10.37,2013-02-26 09:08:00,
2013-02-26 01:13:00,47.1,23.4,30.03,WSW,246,16.1,16.1,39,0.00,OVC,,0.00,WeatherDisplay:10.37,2013-02-26 09:13:00,
2013-02-26 01:18:00,46.4,24.5,30.03,SW,232,12.7,12.7,42,0.00,OVC,,0.00,WeatherDisplay:10.37,2013-02-26 09:18:00,
2013-02-26 01:23:00,46.8,25.5,30.03,SW,225,13.8,13.8,43,0.00,OVC,,0.00,WeatherDisplay:10.37,2013-02-26 09:23:00,
2013-02-26 01:29:00,46.8,24.9,30.03,SW,225,19.6,19.6,42,0.00,OVC,,0.00,WeatherDisplay:10.37,2013-02-26 09:29:00,
2013-02-26 01:34:00,47.0,24.5,30.03,SW,229,17.3,17.3,41,0.00,OVC,,0.00,WeatherDisplay:10.37,2013-02-26 09:34:00,
2013-02-26 01:39:00,47.0,25.1,30.02,SW,216,19.6,19.6,42,0.00,OVC,,0.00,WeatherDisplay:10.37,2013-02-26 09:39:00,
2013-02-26 01:44:00,47.1,25.7,30.02,SW,229,19.6,19.6,43,0.00,OVC,,0.00,WeatherDisplay:10.37,2013-02-26 09:44:00,
2013-02-26 01:49:00,47.3,25.9,30.02,WSW,239,18.4,18.4,43,0.00,OVC,,0.00,WeatherDisplay:10.37,2013-02-26 09:49:00,
2013-02-26 01:54:00,47.3,25.3,30.02,WSW,256,15.0,15.0,42,0.00,OVC,,0.00,WeatherDisplay:10.37,2013-02-26 09:54:00,
2013-02-26 01:59:00,47.3,25.9,30.01,WSW,250,16.1,16.1,43,0.00,OVC,,0.00,WeatherDisplay:10.37,2013-02-26 09:59:00,
2013-02-26 02:05:00,47.1,26.3,30.01,WSW,255,19.6,19.6,44,0.00,CLR,,0.00,WeatherDisplay:10.37,2013-02-26 10:05:00,
2013-02-26 02:10:00,47.0,25.6,30.01,WSW,257,19.6,19.6,43,0.00,CLR,,0.00,WeatherDisplay:10.37,2013-02-26 10:10:00,
2013-02-26 02:15:00,46.9,25.0,30.01,West,263,18.4,18.4,42,0.00,CLR,,0.00,WeatherDisplay:10.37,2013-02-26 10:15:00,
2013-02-26 02:20:00,46.1,24.8,30.01,WSW,251,12.0,12.0,43,0.00,CLR,,0.00,WeatherDisplay:10.37,2013-02-26 10:20:00,
2013-02-26 02:26:00,45.6,24.4,30.01,WSW,240,3.5,3.5,43,0.00,CLR,,0.00,WeatherDisplay:10.37,2013-02-26 10:26:00,
2013-02-26 02:31:00,45.0,24.9,30.02,SSE,162,4.0,4.0,45,0.00,CLR,,0.00,WeatherDisplay:10.37,2013-02-26 10:31:00,
2013-02-26 02:36:00,44.6,25.6,30.02,South,189,9.2,9.2,47,0.00,CLR,,0.00,WeatherDisplay:10.37,2013-02-26 10:36:00,
2013-02-26 02:41:00,45.8,26.2,30.02,SW,225,10.4,10.4,46,0.00,CLR,,0.00,WeatherDisplay:10.37,2013-02-26 10:41:00,
2013-02-26 02:46:00,46.5,26.3,30.02,SW,224,14.0,14.0,45,0.00,CLR,,0.00,WeatherDisplay:10.37,2013-02-26 10:46:00,
2013-02-26 02:51:00,46.7,25.9,30.01,WSW,244,16.1,16.1,44,0.00,CLR,,0.00,WeatherDisplay:10.37,2013-02-26 10:51:00,
2013-02-26 02:57:00,46.7,25.9,30.00,WSW,248,14.0,14.0,44,0.00,CLR,,0.00,WeatherDisplay:10.37,2013-02-26 10:57:00,
2013-02-26 03:02:00,47.1,25.7,30.00,WSW,248,14.0,14.0,43,0.00,CLR,,0.00,WeatherDisplay:10.37,2013-02-26 11:02:00,
2013-02-26 03:07:00,47.0,25.7,30.00,WSW,243,15.0,17.0,43,0.00,CLR,,0.00,WeatherDisplay:10.37,2013-02-26 11:07:00,
2013-02-26 03:12:00,42.8,23.4,30.00,SW,225,15.0,17.0,46,0.00,CLR,,0.00,WeatherDisplay:10.37,2013-02-26 11:12:00,
2013-02-26 03:17:00,42.4,24.1,30.01,SW,215,9.0,16.0,48,0.00,CLR,,0.00,WeatherDisplay:10.37,2013-02-26 11:17:00,
2013-02-26 03:22:00,42.4,24.1,30.01,SSW,201,3.0,9.0,48,0.00,CLR,,0.00,WeatherDisplay:10.37,2013-02-26 11:22:00,
2013-02-26 03:27:00,42.0,23.7,30.01,East,93,3.0,7.0,48,0.00,CLR,,0.00,WeatherDisplay:10.37,2013-02-26 11:27:00,
2013-02-26 03:32:00,43.3,25.4,30.01,ENE,65,2.0,5.0,49,0.00,CLR,,0.00,WeatherDisplay:10.37,2013-02-26 11:32:00,
2013-02-26 03:37:00,44.4,25.4,30.01,SSE,165,2.0,6.0,47,0.00,CLR,,0.00,WeatherDisplay:10.37,2013-02-26 11:37:00,
2013-02-26 03:42:00,44.5,24.4,30.01,SSE,168,3.0,6.0,45,0.00,CLR,,0.00,WeatherDisplay:10.37,2013-02-26 11:42:00,
2013-02-26 03:47:00,43.5,24.1,30.02,ESE,117,5.0,7.0,46,0.00,CLR,,0.00,WeatherDisplay:10.37,2013-02-26 11:47:00,
2013-02-26 03:52:00,43.1,24.7,30.01,East,94,9.2,9.2,48,0.00,CLR,,0.00,WeatherDisplay:10.37,2013-02-26 11:52:00,
2013-02-26 03:57:00,43.2,24.8,30.02,SE,140,9.2,9.2,48,0.00,CLR,,0.00,WeatherDisplay:10.37,2013-02-26 11:57:00,
2013-02-26 04:02:00,42.9,25.0,30.02,ESE,111,7.0,7.0,49,0.00,OVC,,0.00,WeatherDisplay:10.37,2013-02-26 12:02:00,
2013-02-26 04:07:00,42.4,24.1,30.02,ENE,66,6.9,6.9,48,0.00,OVC,,0.00,WeatherDisplay:10.37,2013-02-26 12:07:00,
2013-02-26 04:12:00,42.2,25.3,30.02,SE,125,6.0,6.0,51,0.00,OVC,,0.00,WeatherDisplay:10.37,2013-02-26 12:12:00,
2013-02-26 04:17:00,44.4,25.4,30.02,ESE,121,4.6,4.6,47,0.00,OVC,,0.00,WeatherDisplay:10.37,2013-02-26 12:17:00,
2013-02-26 04:23:00,45.1,25.0,30.02,SE,144,3.5,3.5,45,0.00,OVC,,0.00,WeatherDisplay:10.37,2013-02-26 12:23:00,
2013-02-26 04:28:00,45.3,24.6,30.02,SW,217,6.9,6.9,44,0.00,OVC,,0.00,WeatherDisplay:10.37,2013-02-26 12:28:00,
2013-02-26 04:33:00,41.3,22.1,30.02,NW,325,5.8,5.8,46,0.00,OVC,,0.00,WeatherDisplay:10.37,2013-02-26 12:33:00,
2013-02-26 04:38:00,39.8,23.1,30.03,ENE,65,5.0,5.0,51,0.00,OVC,,0.00,WeatherDisplay:10.37,2013-02-26 12:38:00,
2013-02-26 04:43:00,41.1,24.8,30.03,ESE,103,8.1,8.1,52,0.00,OVC,,0.00,WeatherDisplay:10.37,2013-02-26 12:43:00,
2013-02-26 04:48:00,42.1,25.7,30.03,ESE,103,3.5,3.5,52,0.00,OVC,,0.00,WeatherDisplay:10.37,2013-02-26 12:48:00,
2013-02-26 04:53:00,43.2,26.3,30.03,ESE,103,4.0,4.0,51,0.00,OVC,,0.00,WeatherDisplay:10.37,2013-02-26 12:53:00,
2013-02-26 04:58:00,43.5,26.1,30.02,ESE,103,3.5,3.5,50,0.00,OVC,,0.00,WeatherDisplay:10.37,2013-02-26 12:58:00,
2013-02-26 05:04:00,43.3,25.4,30.02,NE,53,3.5,3.5,49,0.00,OVC,,0.00,WeatherDisplay:10.37,2013-02-26 13:04:00,
2013-02-26 05:09:00,43.4,24.5,30.02,East,97,10.0,10.0,47,0.00,OVC,,0.00,WeatherDisplay:10.37,2013-02-26 13:09:00,
2013-02-26 05:14:00,40.2,24.4,30.03,ESE,116,8.1,8.1,53,0.00,OVC,,0.00,WeatherDisplay:10.37,2013-02-26 13:14:00,
2013-02-26 05:19:00,40.9,25.1,30.02,ESE,123,8.1,8.1,53,0.00,OVC,,0.00,WeatherDisplay:10.37,2013-02-26 13:19:00,
2013-02-26 05:24:00,42.0,26.5,30.03,SE,135,6.9,6.9,54,0.00,OVC,,0.00,WeatherDisplay:10.37,2013-02-26 13:24:00,
2013-02-26 05:29:00,42.5,25.6,30.02,SSE,149,4.6,4.6,51,0.00,OVC,,0.00,WeatherDisplay:10.37,2013-02-26 13:29:00,
2013-02-26 05:34:00,40.7,24.0,30.03,SSE,149,2.3,2.3,51,0.00,CLR,,0.00,WeatherDisplay:10.37,2013-02-26 13:34:00,
2013-02-26 05:39:00,39.2,25.2,30.02,SW,230,3.5,3.5,57,0.00,OVC,,0.00,WeatherDisplay:10.37,2013-02-26 13:39:00,
2013-02-26 05:45:00,40.4,25.9,30.02,SW,230,3.5,3.5,56,0.00,OVC,,0.00,WeatherDisplay:10.37,2013-02-26 13:45:00,
2013-02-26 05:50:00,41.1,25.7,30.03,SW,230,4.0,4.0,54,0.00,OVC,,0.00,WeatherDisplay:10.37,2013-02-26 13:50:00,
2013-02-26 05:55:00,41.4,26.0,30.03,SSW,198,3.5,3.5,54,0.00,OVC,,0.00,WeatherDisplay:10.37,2013-02-26 13:55:00,
2013-02-26 06:00:00,40.7,26.2,30.03,South,174,5.8,5.8,56,0.00,OVC,,0.00,WeatherDisplay:10.37,2013-02-26 14:00:00,
2013-02-26 06:05:00,40.4,26.4,30.02,SSE,163,4.0,4.1,57,0.00,OVC,,0.00,WeatherDisplay:10.37,2013-02-26 14:05:00,
2013-02-26 06:10:00,40.3,26.7,30.03,West,262,6.0,6.0,58,0.00,OVC,,0.00,WeatherDisplay:10.37,2013-02-26 14:10:00,
2013-02-26 06:15:00,39.9,26.3,30.02,SSW,202,7.0,7.0,58,0.00,OVC,,0.00,WeatherDisplay:10.37,2013-02-26 14:15:00,
2013-02-26 06:20:00,39.4,25.8,30.02,SSW,202,3.5,3.5,58,0.00,OVC,,0.00,WeatherDisplay:10.37,2013-02-26 14:20:00,
2013-02-26 06:25:00,39.0,25.5,30.02,South,171,8.0,8.0,58,0.00,OVC,,0.00,WeatherDisplay:10.37,2013-02-26 14:25:00,
2013-02-26 06:30:00,38.6,25.9,30.03,SSE,148,6.0,6.0,60,0.00,OVC,,0.00,WeatherDisplay:10.37,2013-02-26 14:30:00,
2013-02-26 06:36:00,38.6,26.3,30.03,South,175,9.2,9.2,61,0.00,OVC,,0.00,WeatherDisplay:10.37,2013-02-26 14:36:00,
2013-02-26 06:41:00,39.1,26.0,30.03,SSW,193,7.0,7.0,59,0.00,OVC,,0.00,WeatherDisplay:10.37,2013-02-26 14:41:00,
2013-02-26 06:46:00,38.5,25.0,30.03,SSW,213,10.4,10.4,58,0.00,OVC,,0.00,WeatherDisplay:10.37,2013-02-26 14:46:00,
2013-02-26 06:51:00,36.6,23.2,30.03,SSW,202,6.9,6.9,58,0.00,OVC,,0.00,WeatherDisplay:10.37,2013-02-26 14:51:00,
2013-02-26 06:56:00,35.7,23.2,30.03,South,176,5.0,5.0,60,0.00,OVC,,0.00,WeatherDisplay:10.37,2013-02-26 14:56:00,
2013-02-26 07:02:00,35.0,23.3,30.03,SSE,159,4.6,4.6,62,0.00,OVC,,0.00,WeatherDisplay:10.37,2013-02-26 15:02:00,
2013-02-26 07:07:00,35.9,23.8,30.03,South,175,5.0,7.0,61,0.00,CLR,,0.00,WeatherDisplay:10.37,2013-02-26 15:07:00,
2013-02-26 07:12:00,36.3,22.5,30.04,SSW,192,3.0,7.0,57,0.00,CLR,,0.00,WeatherDisplay:10.37,2013-02-26 15:12:00,
2013-02-26 07:17:00,36.2,24.4,30.04,SSW,203,5.0,10.0,62,0.00,CLR,,0.00,WeatherDisplay:10.37,2013-02-26 15:17:00,
2013-02-26 07:22:00,35.8,22.4,30.04,South,183,5.0,6.0,58,0.00,CLR,,0.00,WeatherDisplay:10.37,2013-02-26 15:22:00,
2013-02-26 07:27:00,35.3,22.8,30.04,SSE,161,3.0,6.0,60,0.00,CLR,,0.00,WeatherDisplay:10.37,2013-02-26 15:27:00,
2013-02-26 07:32:00,36.0,23.9,30.05,SSE,160,5.0,7.0,61,0.00,CLR,,0.00,WeatherDisplay:10.37,2013-02-26 15:32:00,
2013-02-26 07:37:00,37.0,24.0,30.05,SSE,152,5.0,7.0,59,0.00,CLR,,0.00,WeatherDisplay:10.37,2013-02-26 15:37:00,
2013-02-26 07:42:00,37.9,24.8,30.05,SSE,147,2.0,4.0,59,0.00,CLR,,0.00,WeatherDisplay:10.37,2013-02-26 15:42:00,
2013-02-26 07:47:00,39.1,25.5,30.05,SE,131,2.0,5.0,58,0.00,CLR,,0.00,WeatherDisplay:10.37,2013-02-26 15:47:00,
2013-02-26 07:52:00,40.3,25.4,30.05,ESE,102,3.0,6.0,55,0.00,CLR,,0.00,WeatherDisplay:10.37,2013-02-26 15:52:00,
2013-02-26 07:57:00,41.5,26.5,30.05,SE,138,3.0,6.0,55,0.00,CLR,,0.00,WeatherDisplay:10.37,2013-02-26 15:57:00,
2013-02-26 08:02:00,43.4,27.8,30.06,SE,146,6.9,6.9,54,0.00,OVC,,0.00,WeatherDisplay:10.37,2013-02-26 16:02:00,
2013-02-26 08:07:00,44.2,29.0,30.06,SE,128,6.9,6.9,55,0.00,OVC,,0.00,WeatherDisplay:10.37,2013-02-26 16:07:00,
2013-02-26 08:12:00,45.0,29.3,30.05,SE,143,3.5,3.5,54,0.00,OVC,,0.00,WeatherDisplay:10.37,2013-02-26 16:12:00,
2013-02-26 08:17:00,46.2,29.5,30.05,ESE,123,7.0,7.0,52,0.00,OVC,,0.00,WeatherDisplay:10.37,2013-02-26 16:17:00,
2013-02-26 08:22:00,47.2,29.0,30.05,ESE,122,3.5,3.5,49,0.00,OVC,,0.00,WeatherDisplay:10.37,2013-02-26 16:22:00,
2013-02-26 08:28:00,48.3,29.0,30.05,East,94,4.6,4.6,47,0.00,OVC,,0.00,WeatherDisplay:10.37,2013-02-26 16:28:00,
2013-02-26 08:33:00,49.4,29.5,30.05,NE,47,5.0,5.0,46,0.00,OVC,,0.00,WeatherDisplay:10.37,2013-02-26 16:33:00,
2013-02-26 08:38:00,50.6,30.0,30.06,NE,47,5.0,5.0,45,0.00,OVC,,0.00,WeatherDisplay:10.37,2013-02-26 16:38:00,
2013-02-26 08:43:00,51.1,28.8,30.05,East,82,11.5,11.5,42,0.00,OVC,,0.00,WeatherDisplay:10.37,2013-02-26 16:43:00,
2013-02-26 08:49:00,50.2,28.5,30.06,ENE,75,10.4,10.4,43,0.00,OVC,,0.00,WeatherDisplay:10.37,2013-02-26 16:49:00,
2013-02-26 08:54:00,50.1,28.4,30.06,ENE,72,11.5,11.5,43,0.00,OVC,,0.00,WeatherDisplay:10.37,2013-02-26 16:54:00,
2013-02-26 08:59:00,50.9,28.6,30.06,ENE,62,12.7,12.7,42,0.00,OVC,,0.00,WeatherDisplay:10.37,2013-02-26 16:59:00,
2013-02-26 09:04:00,51.3,28.4,30.07,NE,42,11.5,11.5,41,0.00,OVC,,0.00,WeatherDisplay:10.37,2013-02-26 17:04:00,
2013-02-26 09:09:00,52.1,27.2,30.07,NNE,26,14.0,14.0,38,0.00,OVC,,0.00,WeatherDisplay:10.37,2013-02-26 17:09:00,
2013-02-26 09:15:00,52.3,27.4,30.07,ENE,78,13.8,13.8,38,0.00,OVC,,0.00,WeatherDisplay:10.37,2013-02-26 17:15:00,
2013-02-26 09:20:00,51.9,27.1,30.07,ENE,57,15.0,15.0,38,0.00,OVC,,0.00,WeatherDisplay:10.37,2013-02-26 17:20:00,
2013-02-26 09:25:00,51.9,27.1,30.08,ENE,63,12.7,12.7,38,0.00,OVC,,0.00,WeatherDisplay:10.37,2013-02-26 17:25:00,
2013-02-26 09:30:00,52.2,27.3,30.08,NE,48,15.0,15.0,38,0.00,OVC,,0.00,WeatherDisplay:10.37,2013-02-26 17:30:00,
2013-02-26 09:35:00,52.4,26.9,30.07,NE,42,16.1,16.1,37,0.00,OVC,,0.00,WeatherDisplay:10.37,2013-02-26 17:35:00,
2013-02-26 09:40:00,52.8,27.2,30.07,NE,56,17.3,17.3,37,0.00,OVC,,0.00,WeatherDisplay:10.37,2013-02-26 17:40:00,
2013-02-26 09:45:00,52.7,27.1,30.08,NNE,13,12.0,12.0,37,0.00,OVC,,0.00,WeatherDisplay:10.37,2013-02-26 17:45:00,
2013-02-26 09:50:00,53.2,26.9,30.08,NE,35,15.0,15.0,36,0.00,OVC,,0.00,WeatherDisplay:10.37,2013-02-26 17:50:00,
2013-02-26 09:55:00,53.9,26.8,30.08,NE,41,13.0,13.0,35,0.00,OVC,,0.00,WeatherDisplay:10.37,2013-02-26 17:55:00,
2013-02-26 10:01:00,54.1,27.0,30.08,NE,48,11.5,11.5,35,0.00,OVC,,0.00,WeatherDisplay:10.37,2013-02-26 18:01:00,
2013-02-26 10:06:00,53.8,27.4,30.08,NE,43,14.0,14.0,36,0.00,CLR,,0.00,WeatherDisplay:10.37,2013-02-26 18:06:00,
2013-02-26 10:11:00,54.6,27.5,30.09,NNE,26,11.5,11.5,35,0.00,CLR,,0.00,WeatherDisplay:10.37,2013-02-26 18:11:00,
2013-02-26 10:16:00,54.8,27.6,30.08,NE,37,10.4,10.4,35,0.00,CLR,,0.00,WeatherDisplay:10.37,2013-02-26 18:16:00,
2013-02-26 10:21:00,55.7,27.0,30.08,NE,42,10.4,10.4,33,0.00,CLR,,0.00,WeatherDisplay:10.37,2013-02-26 18:21:00,
2013-02-26 10:26:00,56.1,27.4,30.08,NNE,29,8.1,8.1,33,0.00,CLR,,0.00,WeatherDisplay:10.37,2013-02-26 18:26:00,
2013-02-26 10:31:00,56.7,26.4,30.08,NE,45,10.4,10.4,31,0.00,CLR,,0.00,WeatherDisplay:10.37,2013-02-26 18:31:00,
2013-02-26 10:37:00,56.6,26.3,30.08,NE,34,11.5,11.5,31,0.00,CLR,,0.00,WeatherDisplay:10.37,2013-02-26 18:37:00,
2013-02-26 10:42:00,57.1,25.9,30.08,NE,37,7.0,16.0,30,0.00,CLR,,0.00,WeatherDisplay:10.37,2013-02-26 18:42:00,
2013-02-26 10:47:00,58.1,24.3,30.08,NNE,29,10.0,15.0,27,0.00,CLR,,0.00,WeatherDisplay:10.37,2013-02-26 18:47:00,
2013-02-26 10:52:00,58.5,23.7,30.08,NNE,27,12.0,18.0,26,0.00,CLR,,0.00,WeatherDisplay:10.37,2013-02-26 18:52:00,
2013-02-26 10:57:00,58.8,21.0,30.08,NE,36,13.0,16.0,23,0.00,CLR,,0.00,WeatherDisplay:10.37,2013-02-26 18:57:00,
2013-02-26 11:02:00,58.8,21.0,30.08,NE,38,8.0,18.0,23,0.00,CLR,,0.00,WeatherDisplay:10.37,2013-02-26 19:02:00,
2013-02-26 11:07:00,58.9,20.1,30.08,NNE,31,12.0,20.0,22,0.00,CLR,,0.00,WeatherDisplay:10.37,2013-02-26 19:07:00,
2013-02-26 11:12:00,59.4,20.5,30.08,NNE,33,13.0,20.0,22,0.00,CLR,,0.00,WeatherDisplay:10.37,2013-02-26 19:12:00,
2013-02-26 11:17:00,59.2,18.1,30.07,NE,42,14.0,17.0,20,0.00,CLR,,0.00,WeatherDisplay:10.37,2013-02-26 19:17:00,
2013-02-26 11:22:00,59.4,18.3,30.07,NE,45,15.0,21.0,20,0.00,CLR,,0.00,WeatherDisplay:10.37,2013-02-26 19:22:00,
2013-02-26 11:27:00,59.5,18.3,30.07,NE,42,16.0,20.0,20,0.00,CLR,,0.00,WeatherDisplay:10.37,2013-02-26 19:27:00,
2013-02-26 11:32:00,59.4,18.3,30.07,NE,42,10.0,20.0,20,0.00,CLR,,0.00,WeatherDisplay:10.37,2013-02-26 19:32:00,
2013-02-26 11:37:00,59.4,18.2,30.07,NE,41,14.0,17.0,20,0.00,CLR,,0.00,WeatherDisplay:10.37,2013-02-26 19:37:00,
2013-02-26 11:42:00,59.9,16.2,30.07,NE,37,9.0,20.0,18,0.00,CLR,,0.00,WeatherDisplay:10.37,2013-02-26 19:42:00,
2013-02-26 11:47:00,60.1,16.4,30.07,NE,38,15.0,20.0,18,0.00,CLR,,0.00,WeatherDisplay:10.37,2013-02-26 19:47:00,
2013-02-26 11:52:00,59.9,16.3,30.06,NE,40,9.0,20.0,18,0.00,CLR,,0.00,WeatherDisplay:10.37,2013-02-26 19:52:00,
2013-02-26 11:57:00,60.2,16.5,30.07,NNE,30,19.6,19.6,18,0.00,CLR,,0.00,WeatherDisplay:10.37,2013-02-26 19:57:00,
2013-02-26 12:02:00,59.9,16.2,30.06,NNE,32,21.9,21.9,18,0.00,OVC,,0.00,WeatherDisplay:10.37,2013-02-26 20:02:00,
2013-02-26 12:07:00,59.8,16.1,30.06,NNE,15,12.0,12.0,18,0.00,OVC,,0.00,WeatherDisplay:10.37,2013-02-26 20:07:00,
2013-02-26 12:12:00,60.5,16.7,30.06,NNE,24,19.6,19.6,18,0.00,OVC,,0.00,WeatherDisplay:10.37,2013-02-26 20:12:00,
2013-02-26 12:17:00,60.8,17.0,30.06,North,355,13.8,13.8,18,0.00,OVC,,0.00,WeatherDisplay:10.37,2013-02-26 20:17:00,
2013-02-26 12:23:00,60.3,15.2,30.05,North,351,17.3,17.3,17,0.00,OVC,,0.00,WeatherDisplay:10.37,2013-02-26 20:23:00,
2013-02-26 12:28:00,60.7,15.6,30.05,NNE,26,19.6,19.6,17,0.00,OVC,,0.00,WeatherDisplay:10.37,2013-02-26 20:28:00,
2013-02-26 12:33:00,60.6,15.5,30.04,NNE,29,13.8,13.8,17,0.00,OVC,,0.00,WeatherDisplay:10.37,2013-02-26 20:33:00,
2013-02-26 12:38:00,61.1,14.5,30.04,North,11,16.1,16.1,16,0.00,OVC,,0.00,WeatherDisplay:10.37,2013-02-26 20:38:00,
2013-02-26 12:44:00,60.8,14.3,30.04,North,9,16.1,16.1,16,0.00,OVC,,0.00,WeatherDisplay:10.37,2013-02-26 20:44:00,
2013-02-26 12:49:00,61.3,14.7,30.04,NE,50,20.0,20.0,16,0.00,OVC,,0.00,WeatherDisplay:10.37,2013-02-26 20:49:00,
2013-02-26 12:54:00,61.5,14.8,30.04,NE,42,18.4,18.4,16,0.00,OVC,,0.00,WeatherDisplay:10.37,2013-02-26 20:54:00,
2013-02-26 12:59:00,61.3,14.7,30.04,NE,48,19.6,19.6,16,0.00,OVC,,0.00,WeatherDisplay:10.37,2013-02-26 20:59:00,
2013-02-26 13:04:00,60.8,14.3,30.03,NE,52,16.1,16.1,16,0.00,OVC,,0.00,WeatherDisplay:10.37,2013-02-26 21:04:00,
2013-02-26 13:10:00,61.3,14.7,30.03,NNE,23,15.0,15.0,16,0.00,OVC,,0.00,WeatherDisplay:10.37,2013-02-26 21:10:00,
2013-02-26 13:15:00,61.3,14.7,30.03,NNE,29,13.8,13.8,16,0.00,OVC,,0.00,WeatherDisplay:10.37,2013-02-26 21:15:00,
2013-02-26 13:20:00,61.5,14.8,30.03,NNE,32,12.7,12.7,16,0.00,OVC,,0.00,WeatherDisplay:10.37,2013-02-26 21:20:00,
2013-02-26 13:26:00,61.8,15.1,30.03,NE,46,17.3,17.3,16,0.00,OVC,,0.00,WeatherDisplay:10.37,2013-02-26 21:26:00,
2013-02-26 13:31:00,61.8,15.1,30.03,NNE,23,18.4,18.4,16,0.00,OVC,,0.00,WeatherDisplay:10.37,2013-02-26 21:31:00,
2013-02-26 13:36:00,61.5,14.8,30.02,NNE,32,13.8,13.8,16,0.00,CLR,,0.00,WeatherDisplay:10.37,2013-02-26 21:36:00,
2013-02-26 13:41:00,61.8,15.1,30.02,NE,48,17.3,17.3,16,0.00,OVC,,0.00,WeatherDisplay:10.37,2013-02-26 21:41:00,
2013-02-26 13:47:00,62.0,15.2,30.02,NE,51,16.1,16.1,16,0.00,OVC,,0.00,WeatherDisplay:10.37,2013-02-26 21:47:00,
2013-02-26 13:52:00,62.2,13.9,30.02,NNE,12,18.4,18.4,15,0.00,OVC,,0.00,WeatherDisplay:10.37,2013-02-26 21:52:00,
2013-02-26 13:57:00,62.4,14.1,30.02,North,5,19.0,19.0,15,0.00,OVC,,0.00,WeatherDisplay:10.37,2013-02-26 21:57:00,
2013-02-26 14:02:00,62.1,13.8,30.02,North,360,15.0,15.0,15,0.00,OVC,,0.00,WeatherDisplay:10.37,2013-02-26 22:02:00,
2013-02-26 14:07:00,62.3,14.0,30.02,NNW,343,18.4,18.4,15,0.00,OVC,,0.00,WeatherDisplay:10.37,2013-02-26 22:07:00,
2013-02-26 14:12:00,62.4,14.1,30.02,North,7,14.0,18.0,15,0.00,CLR,,0.00,WeatherDisplay:10.37,2013-02-26 22:12:00,
2013-02-26 14:17:00,62.5,14.2,30.02,NNE,17,6.0,14.0,15,0.00,CLR,,0.00,WeatherDisplay:10.37,2013-02-26 22:17:00,
2013-02-26 14:22:00,62.4,14.1,30.02,NNE,15,15.0,15.0,15,0.00,OVC,,0.00,WeatherDisplay:10.37,2013-02-26 22:22:00,
2013-02-26 14:27:00,62.7,14.3,30.02,NNE,24,19.6,19.6,15,0.00,OVC,,0.00,WeatherDisplay:10.37,2013-02-26 22:27:00,
2013-02-26 14:32:00,62.5,14.2,30.02,NE,47,12.0,12.0,15,0.00,OVC,,0.00,WeatherDisplay:10.37,2013-02-26 22:32:00,
2013-02-26 14:38:00,62.2,13.9,30.02,NE,42,12.7,12.7,15,0.00,OVC,,0.00,WeatherDisplay:10.37,2013-02-26 22:38:00,
2013-02-26 14:43:00,62.7,14.3,30.02,NNE,33,16.0,16.0,15,0.00,OVC,,0.00,WeatherDisplay:10.37,2013-02-26 22:43:00,
2013-02-26 14:48:00,63.0,14.6,30.02,North,5,11.5,11.5,15,0.00,OVC,,0.00,WeatherDisplay:10.37,2013-02-26 22:48:00,
2013-02-26 14:53:00,63.1,13.1,30.01,North,5,8.1,8.1,14,0.00,OVC,,0.00,WeatherDisplay:10.37,2013-02-26 22:53:00,
2013-02-26 14:58:00,63.0,13.0,30.01,NE,48,17.3,17.3,14,0.00,CLR,,0.00,WeatherDisplay:10.37,2013-02-26 22:58:00,
2013-02-26 15:03:00,62.7,12.7,30.01,NNE,29,19.6,19.6,14,0.00,OVC,,0.00,WeatherDisplay:10.37,2013-02-26 23:03:00,
2013-02-26 15:08:00,62.7,12.7,30.01,NE,44,17.3,17.3,14,0.00,OVC,,0.00,WeatherDisplay:10.37,2013-02-26 23:08:00,
2013-02-26 15:13:00,62.5,12.6,30.01,NNE,21,10.4,10.4,14,0.00,OVC,,0.00,WeatherDisplay:10.37,2013-02-26 23:13:00,
2013-02-26 15:18:00,62.7,12.7,30.02,North,355,17.3,17.3,14,0.00,OVC,,0.00,WeatherDisplay:10.37,2013-02-26 23:18:00,
2013-02-26 15:23:00,63.0,11.3,30.01,NW,325,11.5,11.5,13,0.00,OVC,,0.00,WeatherDisplay:10.37,2013-02-26 23:23:00,
2013-02-26 15:28:00,63.2,13.1,30.01,NE,45,11.5,11.5,14,0.00,OVC,,0.00,WeatherDisplay:10.37,2013-02-26 23:28:00,
2013-02-26 15:34:00,62.7,12.7,30.02,NNE,30,13.8,13.8,14,0.00,OVC,,0.00,WeatherDisplay:10.37,2013-02-26 23:34:00,
2013-02-26 15:39:00,62.9,11.2,30.02,NE,34,17.3,17.3,13,0.00,OVC,,0.00,WeatherDisplay:10.37,2013-02-26 23:39:00,
2013-02-26 15:44:00,62.8,11.1,30.02,NNE,25,12.7,12.7,13,0.00,OVC,,0.00,WeatherDisplay:10.37,2013-02-26 23:44:00,
2013-02-26 15:49:00,63.0,11.3,30.01,NNE,19,8.1,8.1,13,0.00,OVC,,0.00,WeatherDisplay:10.37,2013-02-26 23:49:00,
2013-02-26 15:54:00,63.2,11.5,30.01,NE,39,10.4,10.4,13,0.00,OVC,,0.00,WeatherDisplay:10.37,2013-02-26 23:54:00,
2013-02-26 15:59:00,63.1,9.6,30.01,NE,56,12.7,12.7,12,0.00,OVC,,0.00,WeatherDisplay:10.37,2013-02-26 23:59:00,
2013-02-26 16:04:00,62.8,9.4,30.01,North,9,15.0,15.0,12,0.00,OVC,,0.00,WeatherDisplay:10.37,2013-02-27 00:04:00,
2013-02-26 16:10:00,62.6,9.2,30.01,NNW,339,13.8,13.8,12,0.00,OVC,,0.00,WeatherDisplay:10.37,2013-02-27 00:10:00,
2013-02-26 16:15:00,62.5,9.1,30.01,North,5,13.0,13.0,12,0.00,OVC,,0.00,WeatherDisplay:10.37,2013-02-27 00:15:00,
2013-02-26 16:20:00,62.4,9.0,30.01,NNE,15,12.7,12.7,12,0.00,OVC,,0.00,WeatherDisplay:10.37,2013-02-27 00:20:00,
2013-02-26 16:25:00,62.5,9.1,30.01,NNE,16,13.0,13.0,12,0.00,OVC,,0.00,WeatherDisplay:10.37,2013-02-27 00:25:00,
2013-02-26 16:30:00,62.3,9.0,30.01,North,10,11.5,11.5,12,0.00,OVC,,0.00,WeatherDisplay:10.37,2013-02-27 00:30:00,
2013-02-26 16:35:00,62.2,8.9,30.01,North,5,11.5,11.5,12,0.00,OVC,,0.00,WeatherDisplay:10.37,2013-02-27 00:35:00,
2013-02-26 16:40:00,62.1,8.8,30.01,NNW,346,9.2,9.2,12,0.00,OVC,,0.00,WeatherDisplay:10.37,2013-02-27 00:40:00,
2013-02-26 16:45:00,62.0,8.7,30.01,NNE,13,11.5,11.5,12,0.00,OVC,,0.00,WeatherDisplay:10.37,2013-02-27 00:45:00,
2013-02-26 16:50:00,61.8,8.6,30.01,NNE,30,13.8,13.8,12,0.00,OVC,,0.00,WeatherDisplay:10.37,2013-02-27 00:50:00,
2013-02-26 16:55:00,61.5,8.3,30.01,NNE,30,10.4,10.4,12,0.00,OVC,,0.00,WeatherDisplay:10.37,2013-02-27 00:55:00,
2013-02-26 17:00:00,61.4,8.3,30.01,North,5,10.4,10.4,12,0.00,OVC,,0.00,WeatherDisplay:10.37,2013-02-27 01:00:00,
2013-02-26 17:05:00,61.2,8.1,30.01,North,9,11.5,11.5,12,0.00,OVC,,0.00,WeatherDisplay:10.37,2013-02-27 01:05:00,
2013-02-26 17:11:00,60.9,7.9,30.02,NNE,23,8.0,8.0,12,0.00,OVC,,0.00,WeatherDisplay:10.37,2013-02-27 01:11:00,
2013-02-26 17:16:00,60.6,9.4,30.02,NNE,28,6.9,6.9,13,0.00,OVC,,0.00,WeatherDisplay:10.37,2013-02-27 01:16:00,
2013-02-26 17:21:00,60.2,9.1,30.01,NE,45,8.1,8.1,13,0.00,OVC,,0.00,WeatherDisplay:10.37,2013-02-27 01:21:00,
2013-02-26 17:26:00,59.9,10.5,30.02,NE,47,5.8,5.8,14,0.00,OVC,,0.00,WeatherDisplay:10.37,2013-02-27 01:26:00,
2013-02-26 17:32:00,59.5,8.5,30.02,NNE,28,6.0,6.0,13,0.00,OVC,,0.00,WeatherDisplay:10.37,2013-02-27 01:32:00,
2013-02-26 17:37:00,59.0,9.8,30.02,NE,41,6.0,6.0,14,0.00,OVC,,0.00,WeatherDisplay:10.37,2013-02-27 01:37:00,
2013-02-26 17:42:00,58.2,9.1,30.02,NE,44,5.8,5.8,14,0.00,OVC,,0.00,WeatherDisplay:10.37,2013-02-27 01:42:00,
2013-02-26 17:47:00,57.4,8.5,30.02,NE,36,4.6,4.6,14,0.00,OVC,,0.00,WeatherDisplay:10.37,2013-02-27 01:47:00,
2013-02-26 17:52:00,56.8,9.5,30.02,NE,35,6.0,8.0,15,0.00,CLR,,0.00,WeatherDisplay:10.37,2013-02-27 01:52:00,
2013-02-26 17:57:00,55.9,8.8,30.02,NE,35,5.0,9.0,15,0.00,CLR,,0.00,WeatherDisplay:10.37,2013-02-27 01:57:00,
2013-02-26 18:02:00,55.1,8.2,30.02,NE,39,5.0,6.0,15,0.00,CLR,,0.00,WeatherDisplay:10.37,2013-02-27 02:02:00,
2013-02-26 18:07:00,54.8,9.4,30.03,NE,43,6.0,6.0,16,0.00,CLR,,0.00,WeatherDisplay:10.37,2013-02-27 02:07:00,
2013-02-26 18:12:00,54.6,9.2,30.03,NE,44,6.0,6.0,16,0.00,CLR,,0.00,WeatherDisplay:10.37,2013-02-27 02:12:00,
2013-02-26 18:17:00,54.5,9.2,30.03,NE,45,5.0,5.0,16,0.00,CLR,,0.00,WeatherDisplay:10.37,2013-02-27 02:17:00,
2013-02-26 18:22:00,53.5,8.3,30.03,North,5,4.0,4.0,16,0.00,OVC,,0.00,WeatherDisplay:10.37,2013-02-27 02:22:00,
2013-02-26 18:27:00,52.9,7.8,30.04,North,5,3.5,3.5,16,0.00,OVC,,0.00,WeatherDisplay:10.37,2013-02-27 02:27:00,
2013-02-26 18:33:00,52.6,7.6,30.05,North,5,3.5,3.5,16,0.00,OVC,,0.00,WeatherDisplay:10.37,2013-02-27 02:33:00,
2013-02-26 18:38:00,52.5,8.9,30.05,NNW,339,4.0,4.0,17,0.00,OVC,,0.00,WeatherDisplay:10.37,2013-02-27 02:38:00,
2013-02-26 18:43:00,52.8,9.1,30.05,NW,315,5.0,5.0,17,0.00,OVC,,0.00,WeatherDisplay:10.37,2013-02-27 02:43:00,
2013-02-26 18:48:00,53.3,9.5,30.05,NW,308,7.0,7.0,17,0.00,OVC,,0.00,WeatherDisplay:10.37,2013-02-27 02:48:00,
2013-02-26 18:53:00,53.5,8.3,30.05,NW,311,8.1,8.1,16,0.00,OVC,,0.00,WeatherDisplay:10.37,2013-02-27 02:53:00,
2013-02-26 18:59:00,53.3,8.2,30.06,WNW,302,6.9,6.9,16,0.00,OVC,,0.00,WeatherDisplay:10.37,2013-02-27 02:59:00,
2013-02-26 19:04:00,53.4,9.6,30.06,NW,304,8.1,8.1,17,0.00,CLR,,0.00,WeatherDisplay:10.37,2013-02-27 03:04:00,
2013-02-26 19:09:00,53.5,13.4,30.06,NW,306,11.0,11.0,20,0.00,CLR,,0.00,WeatherDisplay:10.37,2013-02-27 03:09:00,
2013-02-26 19:14:00,54.2,11.5,30.07,NW,311,8.1,8.1,18,0.00,CLR,,0.00,WeatherDisplay:10.37,2013-02-27 03:14:00,
2013-02-26 19:19:00,53.9,13.7,30.07,NW,323,8.1,8.1,20,0.00,CLR,,0.00,WeatherDisplay:10.37,2013-02-27 03:19:00,
2013-02-26 19:24:00,53.3,14.3,30.07,NW,316,6.9,6.9,21,0.00,CLR,,0.00,WeatherDisplay:10.37,2013-02-27 03:24:00,
2013-02-26 19:29:00,52.7,15.9,30.07,NW,320,8.1,8.1,23,0.00,CLR,,0.00,WeatherDisplay:10.37,2013-02-27 03:29:00,
2013-02-26 19:35:00,52.3,20.1,30.08,NW,311,7.0,7.0,28,0.00,CLR,,0.00,WeatherDisplay:10.37,2013-02-27 03:35:00,
2013-02-26 19:40:00,52.6,23.5,30.08,NW,308,6.9,6.9,32,0.00,CLR,,0.00,WeatherDisplay:10.37,2013-02-27 03:40:00,
2013-02-26 19:45:00,52.6,22.0,30.08,NW,322,6.9,6.9,30,0.00,CLR,,0.00,WeatherDisplay:10.37,2013-02-27 03:45:00,
2013-02-26 19:50:00,52.1,22.3,30.08,North,355,5.0,5.0,31,0.00,CLR,,0.00,WeatherDisplay:10.37,2013-02-27 03:50:00,
2013-02-26 19:55:00,51.7,22.0,30.08,NNW,335,4.6,4.6,31,0.00,CLR,,0.00,WeatherDisplay:10.37,2013-02-27 03:55:00,
2013-02-26 20:01:00,51.0,22.9,30.08,NNE,30,5.0,5.0,33,0.00,CLR,,0.00,WeatherDisplay:10.37,2013-02-27 04:01:00,
2013-02-26 20:06:00,50.5,23.1,30.08,NW,320,9.0,9.0,34,0.00,CLR,,0.00,WeatherDisplay:10.37,2013-02-27 04:06:00,
2013-02-26 20:11:00,51.4,22.5,30.09,NW,320,7.0,7.0,32,0.00,CLR,,0.00,WeatherDisplay:10.37,2013-02-27 04:11:00,
2013-02-26 20:16:00,50.7,22.6,30.09,NNW,327,9.2,9.2,33,0.00,CLR,,0.00,WeatherDisplay:10.37,2013-02-27 04:16:00,
2013-02-26 20:21:00,50.4,21.6,30.09,NW,319,7.0,7.0,32,0.00,CLR,,0.00,WeatherDisplay:10.37,2013-02-27 04:21:00,
2013-02-26 20:27:00,50.0,20.5,30.09,NW,320,6.9,6.9,31,0.00,CLR,,0.00,WeatherDisplay:10.37,2013-02-27 04:27:00,
2013-02-26 20:32:00,49.7,21.0,30.09,NW,317,7.0,7.0,32,0.00,CLR,,0.00,WeatherDisplay:10.37,2013-02-27 04:32:00,
2013-02-26 20:37:00,49.5,21.5,30.09,NW,321,7.0,8.0,33,0.00,CLR,,0.00,WeatherDisplay:10.37,2013-02-27 04:37:00,
2013-02-26 20:42:00,49.7,21.0,30.09,NW,320,6.0,8.0,32,0.00,CLR,,0.00,WeatherDisplay:10.37,2013-02-27 04:42:00,
2013-02-26 20:47:00,49.9,21.2,30.09,NW,322,6.0,8.0,32,0.00,CLR,,0.00,WeatherDisplay:10.37,2013-02-27 04:47:00,
2013-02-26 20:52:00,49.5,21.5,30.10,NNW,329,6.0,8.0,33,0.00,CLR,,0.00,WeatherDisplay:10.37,2013-02-27 04:52:00,
2013-02-26 20:57:00,49.3,22.1,30.10,NNW,329,5.0,8.0,34,0.00,CLR,,0.00,WeatherDisplay:10.37,2013-02-27 04:57:00,
2013-02-26 21:00:00,49.0,23.2,30.10,NNW,327,6.9,6.9,36,0.00,CLR,,0.00,WeatherDisplay:10.37,2013-02-27 05:00:00,
2013-02-26 21:01:00,49.0,23.2,30.10,North,355,6.9,6.9,36,0.00,CLR,,0.00,WeatherDisplay:10.37,2013-02-27 05:01:00,
2013-02-26 21:06:00,48.6,23.5,30.10,NNW,329,8.1,8.1,37,0.00,CLR,,0.00,WeatherDisplay:10.37,2013-02-27 05:06:00,
2013-02-26 21:11:00,47.4,23.7,30.10,NW,317,9.2,9.2,39,0.00,CLR,,0.00,WeatherDisplay:10.37,2013-02-27 05:11:00,
2013-02-26 21:17:00,47.7,23.3,30.11,NNW,333,9.2,9.2,38,0.00,CLR,,0.00,WeatherDisplay:10.37,2013-02-27 05:17:00,
2013-02-26 21:22:00,48.5,19.9,30.11,NNW,332,8.1,8.1,32,0.00,CLR,,0.00,WeatherDisplay:10.37,2013-02-27 05:22:00,
2013-02-26 21:27:00,48.5,20.7,30.11,NNW,331,8.1,8.1,33,0.00,CLR,,0.00,WeatherDisplay:10.37,2013-02-27 05:27:00,
2013-02-26 21:32:00,47.8,20.1,30.11,NW,325,7.0,8.0,33,0.00,CLR,,0.00,WeatherDisplay:10.37,2013-02-27 05:32:00,
2013-02-26 21:37:00,47.7,18.5,30.11,NNW,333,9.2,9.2,31,0.00,CLR,,0.00,WeatherDisplay:10.37,2013-02-27 05:37:00,
2013-02-26 21:42:00,47.8,17.0,30.11,NNW,331,8.0,9.0,29,0.00,CLR,,0.00,WeatherDisplay:10.37,2013-02-27 05:42:00,
2013-02-26 21:47:00,47.4,16.7,30.11,NNW,328,8.0,9.0,29,0.00,CLR,,0.00,WeatherDisplay:10.37,2013-02-27 05:47:00,
2013-02-26 21:52:00,47.5,15.1,30.12,NNW,329,7.0,9.0,27,0.00,CLR,,0.00,WeatherDisplay:10.37,2013-02-27 05:52:00,
2013-02-26 21:57:00,47.3,14.9,30.12,NNW,328,7.0,9.0,27,0.00,CLR,,0.00,WeatherDisplay:10.37,2013-02-27 05:57:00,
2013-02-26 22:02:00,46.8,12.8,30.12,NW,325,8.0,10.0,25,0.00,CLR,,0.00,WeatherDisplay:10.37,2013-02-27 06:02:00,
2013-02-26 22:07:00,46.7,13.6,30.12,NW,326,6.0,9.0,26,0.00,CLR,,0.00,WeatherDisplay:10.37,2013-02-27 06:07:00,
2013-02-26 22:12:00,46.8,12.8,30.13,NNW,329,8.0,9.0,25,0.00,CLR,,0.00,WeatherDisplay:10.37,2013-02-27 06:12:00,
2013-02-26 22:17:00,47.8,10.7,30.13,NNW,327,8.0,10.0,22,0.00,CLR,,0.00,WeatherDisplay:10.37,2013-02-27 06:17:00,
2013-02-26 22:22:00,47.1,10.1,30.13,NW,323,7.0,9.0,22,0.00,CLR,,0.00,WeatherDisplay:10.37,2013-02-27 06:22:00,
2013-02-26 22:27:00,46.5,9.7,30.13,NW,322,6.0,8.0,22,0.00,CLR,,0.00,WeatherDisplay:10.37,2013-02-27 06:27:00,
2013-02-26 22:32:00,46.0,10.2,30.14,NNW,329,2.0,8.0,23,0.00,CLR,,0.00,WeatherDisplay:10.37,2013-02-27 06:32:00,
2013-02-26 22:37:00,45.0,10.3,30.14,North,351,3.0,5.0,24,0.00,CLR,,0.00,WeatherDisplay:10.37,2013-02-27 06:37:00,
2013-02-26 22:42:00,44.3,10.6,30.14,NNE,15,3.0,6.0,25,0.00,CLR,,0.00,WeatherDisplay:10.37,2013-02-27 06:42:00,
2013-02-26 22:47:00,45.0,11.3,30.14,North,349,3.0,6.0,25,0.00,CLR,,0.00,WeatherDisplay:10.37,2013-02-27 06:47:00,
2013-02-26 22:52:00,44.7,11.0,30.14,North,350,3.0,5.0,25,0.00,CLR,,0.00,WeatherDisplay:10.37,2013-02-27 06:52:00,
2013-02-26 22:57:00,45.1,10.4,30.14,NNW,339,5.0,7.0,24,0.00,CLR,,0.00,WeatherDisplay:10.37,2013-02-27 06:57:00,
2013-02-26 23:02:00,45.7,10.9,30.14,NW,325,3.0,4.0,24,0.00,CLR,,0.00,WeatherDisplay:10.37,2013-02-27 07:02:00,
2013-02-26 23:07:00,45.9,11.1,30.15,NW,323,3.5,0.0,24,0.00,CLR,,0.00,WeatherDisplay:10.37,2013-02-27 07:07:00,
2013-02-26 23:12:00,45.7,10.9,30.15,NW,323,3.5,3.5,24,0.00,CLR,,0.00,WeatherDisplay:10.37,2013-02-27 07:12:00,
2013-02-26 23:18:00,45.1,10.4,30.15,NW,323,1.1,0.0,24,0.00,CLR,,0.00,WeatherDisplay:10.37,2013-02-27 07:18:00,
2013-02-26 23:23:00,44.1,9.5,30.15,NW,323,4.0,4.0,24,0.00,CLR,,0.00,WeatherDisplay:10.37,2013-02-27 07:23:00,
2013-02-26 23:28:00,44.0,10.4,30.15,NNW,329,7.0,7.0,25,0.00,CLR,,0.00,WeatherDisplay:10.37,2013-02-27 07:28:00,
2013-02-26 23:33:00,44.3,11.5,30.15,NNW,328,7.0,7.0,26,0.00,CLR,,0.00,WeatherDisplay:10.37,2013-02-27 07:33:00,
2013-02-26 23:38:00,44.8,10.1,30.15,NW,317,8.1,8.1,24,0.00,CLR,,0.00,WeatherDisplay:10.37,2013-02-27 07:38:00,
2013-02-26 23:43:00,45.4,8.7,30.15,NNW,328,8.1,8.1,22,0.00,CLR,,0.00,WeatherDisplay:10.37,2013-02-27 07:43:00,
2013-02-26 23:48:00,46.0,8.2,30.15,NNW,328,8.1,8.1,21,0.00,CLR,,0.00,WeatherDisplay:10.37,2013-02-27 07:48:00,
2013-02-26 23:53:00,45.4,7.7,30.15,NW,323,8.1,8.1,21,0.00,CLR,,0.00,WeatherDisplay:10.37,2013-02-27 07:53:00,
2013-02-26 23:59:00,44.8,8.2,30.15,NNW,330,9.2,9.2,22,0.00,CLR,,0.00,WeatherDisplay:10.37,2013-02-27 07:59:00,